Weather History for Sacramento, CA

Change the Weather History Date:

Thursday, December 27, 2012

  Actual Average Record
Temperature  
Mean Temperature 44 °F -  
Max Temperature 51 °F 52 °F 68 °F (1953)
Min Temperature 36 °F 38 °F 26 °F (1956)
Degree Days  
Heating Degree Days 21    
Cooling Degree Days 0    
Moisture  
Dew Point 38 °F    
Average Humidity 86    
Maximum Humidity 100    
Minimum Humidity 71    
Precipitation  
Precipitation 0.00 in 0.11 in 0.78 in (1971)
Month to date precipitation 6.15 2.80  
Year to date precipitation 21.15 18.07  
Since 1 July precipitation 11.29 6.17  
Sea Level Pressure  
Sea Level Pressure 30.13 in    
Wind  
Wind Speed 1 mph (NW)    
Max Wind Speed 10 mph    
Max Gust Speed 13 mph    
Visibility 4 miles    
Events Fog    
T = Trace of Precipitation, MM = Missing Value Source: NWS Daily Summary

Daily Weather History Graph

Daily Weather History Graph

Search for Another Location

Airport:

Trip Planner

Search our weather history database for the weather conditions in past years. The results will help you decide how hot, cold, wet, or windy it might be!

Date:

Astronomy

Dec. 27, 2012 Rise Set
Actual Time 7:22 AM PST 4:52 PM PST
Civil Twilight 6:52 AM PST 5:22 PM PST
Nautical Twilight 6:19 AM PST 5:55 PM PST
Astronomical Twilight 5:47 AM PST 6:27 PM PST
Moon 4:39 PM PST (12/27) 6:37 AM PST (12/27)
Length of Visible Light 10h 29m
Length of Day
9h 29m
Full, 100% of the Moon is Illuminated
Dec 27
Full
Dec 28
Full
Jan 4
Last Quarter
Jan 11
New
Jan 18
First Quarter

Hourly Weather History & Observations

Time (PST) Temp. Windchill Dew Point Humidity Pressure Visibility Wind Dir Wind Speed Gust Speed Precip Events Conditions
12:00 AM 39.2 °F - 37.4 °F 93% 30.10 in 3.0 mi Calm Calm - N/A   Clear
12:10 AM 39.2 °F - 37.4 °F 93% 30.10 in 1.5 mi Calm Calm - N/A   Clear
12:23 AM 39.2 °F - 37.4 °F 93% 30.10 in 0.5 mi Calm Calm - N/A Fog Fog
12:36 AM 39.2 °F - 37.4 °F 93% 30.10 in 1.0 mi Calm Calm - N/A   Mist
12:49 AM 37.4 °F - 35.6 °F 93% 30.10 in 0.5 mi Calm Calm - N/A Fog Fog
12:53 AM 37.9 °F - 36.0 °F 93% 30.10 in 0.8 mi Calm Calm - N/A   Clear
1:46 AM 37.4 °F - 35.6 °F 93% 30.10 in 2.0 mi Calm Calm - N/A   Partly Cloudy
1:53 AM 37.0 °F - 36.0 °F 96% 30.10 in 1.8 mi Calm Calm - N/A   Mostly Cloudy
2:11 AM 37.4 °F - 35.6 °F 93% 30.11 in 1.8 mi Calm Calm - N/A   Scattered Clouds
2:20 AM 37.4 °F - 37.4 °F 100% 30.11 in 2.5 mi Calm Calm - N/A   Scattered Clouds
2:29 AM 37.4 °F - 35.6 °F 93% 30.11 in 1.2 mi Calm Calm - N/A   Partly Cloudy
2:35 AM 37.4 °F - 35.6 °F 93% 30.11 in 3.0 mi Calm Calm - N/A   Partly Cloudy
2:53 AM 39.0 °F - 37.0 °F 93% 30.10 in 3.0 mi Calm Calm - N/A   Clear
3:00 AM 39.2 °F - 37.4 °F 93% 30.10 in 2.5 mi Calm Calm - N/A   Partly Cloudy
3:06 AM 39.2 °F - 37.4 °F 93% 30.10 in 1.0 mi Calm Calm - N/A   Mist
3:12 AM 39.2 °F - 37.4 °F 93% 30.10 in 0.2 mi Calm Calm - N/A Fog Fog
3:31 AM 37.4 °F - 35.6 °F 93% 30.10 in 0.8 mi Calm Calm - N/A   Mist
3:53 AM 37.9 °F - 37.0 °F 97% 30.10 in 1.0 mi Calm Calm - N/A   Overcast
4:23 AM 39.2 °F 37.0 °F 37.4 °F 93% 30.10 in 2.5 mi WSW 3.5 mph - N/A   Overcast
4:36 AM 39.2 °F - 37.4 °F 93% 30.10 in 1.2 mi Calm Calm - N/A   Overcast
4:48 AM 39.2 °F - 39.2 °F 100% 30.10 in 0.8 mi Calm Calm - N/A   Mist
4:53 AM 41.0 °F - 39.0 °F 93% 30.10 in 1.0 mi Calm Calm - N/A   Mist
5:08 AM 41.0 °F - 39.2 °F 93% 30.10 in 0.5 mi Calm Calm - N/A Fog Fog
5:32 AM 39.2 °F - 39.2 °F 100% 30.11 in 0.2 mi Calm Calm - N/A Fog Fog
5:53 AM 41.0 °F - 39.0 °F 93% 30.12 in 0.2 mi Calm Calm - N/A Fog Fog
6:53 AM 41.0 °F - 39.0 °F 93% 30.13 in 0.2 mi Calm Calm - N/A Fog Fog
7:53 AM 39.9 °F 37.8 °F 39.0 °F 97% 30.14 in 0.2 mi NNW 3.5 mph - N/A Fog Fog
8:53 AM 39.9 °F 35.8 °F 37.9 °F 93% 30.15 in 1.0 mi NNW 5.8 mph - N/A   Mist
9:07 AM 41.0 °F - 39.2 °F 93% 30.16 in 0.5 mi Calm Calm - N/A Fog Fog
9:16 AM 41.0 °F 38.0 °F 39.2 °F 93% 30.16 in 2.0 mi North 4.6 mph - N/A   Mostly Cloudy
9:23 AM 39.2 °F 35.0 °F 37.4 °F 93% 30.16 in 1.0 mi North 5.8 mph - N/A   Mostly Cloudy
9:41 AM 41.0 °F - 39.2 °F 93% 30.17 in 2.0 mi Calm Calm - N/A   Mostly Cloudy
9:53 AM 42.1 °F - 39.9 °F 92% 30.17 in 5.0 mi Calm Calm - N/A   Mostly Cloudy
10:01 AM 42.8 °F - 39.2 °F 87% 30.17 in 6.0 mi Calm Calm - N/A   Scattered Clouds
10:53 AM 46.9 °F - 41.0 °F 80% 30.16 in 10.0 mi Calm Calm - N/A   Partly Cloudy
11:53 AM 48.0 °F - 41.0 °F 77% 30.14 in 10.0 mi North 5.8 mph - N/A   Clear
12:53 PM 45.0 °F 39.7 °F 39.9 °F 82% 30.14 in 10.0 mi WNW 10.4 mph - N/A   Partly Cloudy
1:53 PM 46.9 °F - 39.9 °F 77% 30.13 in 10.0 mi West 8.1 mph - N/A   Partly Cloudy
2:53 PM 50.0 °F - 41.0 °F 71% 30.12 in 10.0 mi NNW 5.8 mph - N/A   Clear
3:53 PM 50.0 °F - 39.9 °F 68% 30.12 in 10.0 mi NNW 9.2 mph - N/A   Clear
4:53 PM 46.9 °F - 37.9 °F 71% 30.13 in 10.0 mi NNW 4.6 mph - N/A   Clear
5:53 PM 43.0 °F - 37.9 °F 82% 30.14 in 10.0 mi Calm Calm - N/A   Clear
6:53 PM 41.0 °F - 37.9 °F 89% 30.15 in 10.0 mi Calm Calm - N/A   Clear
7:53 PM 39.0 °F - 36.0 °F 89% 30.16 in 10.0 mi Calm Calm - N/A   Clear
8:53 PM 37.9 °F - 35.1 °F 89% 30.16 in 6.0 mi Calm Calm - N/A   Clear
9:53 PM 37.9 °F 34.4 °F 36.0 °F 93% 30.17 in 9.0 mi SW 4.6 mph - N/A   Clear
10:53 PM 37.0 °F - 35.1 °F 93% 30.17 in 7.0 mi Calm Calm - N/A   Clear
11:36 PM 35.6 °F - 33.8 °F 93% 30.17 in 1.8 mi Calm Calm - N/A   Clear
11:45 PM 35.6 °F - 33.8 °F 93% 30.18 in 2.0 mi Calm Calm - N/A   Clear
11:53 PM 35.1 °F - 33.1 °F 92% 30.18 in 2.0 mi Calm Calm - N/A   Clear